Location: Alexandria
(38.8050°N, 77.0470°W)
Time: 02:11:32
(UTC-05:00)

OTV 5 (USA 277) - Pass Details

Date: 19 November 2017
Orbit: 404 x 417 km, 43.0° (Epoch: 07 September)

Event Time Altitude Azimuth Distance (km) Brightness Sun altitude
Exits shadow 05:48:41 24° 275° (W) 884 ? -13.0°
Maximum altitude 05:50:24 53° 207° (SSW) 499 ? -12.7°
Drops below altitude 10° 05:53:36 10° 129° (SE) 1,449 ? -12.1°
Sets 05:55:43 0° 125° (SE) 2,306 ? -11.7°
